TimeEST,TemperatureF,Dew PointF,Humidity,Sea Level PressureIn,VisibilityMPH,Wind Direction,Wind SpeedMPH,Gust SpeedMPH,PrecipitationIn,Events,Conditions,WindDirDegrees,DateUTC
12:14 AM,39.4,33.3,79,30.00,7.0,East,12.7,-,N/A,,Overcast,100,2012-12-20 05:14:00
12:33 AM,39.6,32.9,77,30.00,7.0,ESE,9.2,-,N/A,,Overcast,120,2012-12-20 05:33:00
12:54 AM,39.6,32.9,77,30.00,7.0,SE,11.5,-,N/A,,Overcast,130,2012-12-20 05:54:00
1:14 AM,39.6,32.9,77,29.96,7.0,ESE,11.5,-,N/A,,Overcast,110,2012-12-20 06:14:00
1:34 AM,39.7,32.5,75,29.95,7.0,ESE,13.8,-,N/A,,Overcast,110,2012-12-20 06:34:00
1:54 AM,39.7,32.5,75,29.94,7.0,East,11.5,16.1,N/A,,Overcast,90,2012-12-20 06:54:00
2:14 AM,39.7,32.9,77,29.95,7.0,East,10.4,-,N/A,,Overcast,90,2012-12-20 07:14:00
2:34 AM,38.5,33.3,81,29.95,5.0,ESE,12.7,-,N/A,Rain,Light Rain,120,2012-12-20 07:34:00
2:54 AM,37.4,33.3,85,29.91,3.0,East,10.4,-,0.01,Snow,Light Snow,90,2012-12-20 07:54:00
3:14 AM,37.0,33.4,87,29.89,3.0,East,15.0,18.4,0.01,Snow,Light Snow,90,2012-12-20 08:14:00
3:34 AM,37.4,33.8,87,29.86,4.0,East,16.1,23.0,0.01,,Overcast,80,2012-12-20 08:34:00
3:54 AM,37.6,33.8,86,29.87,4.0,East,13.8,19.6,0.01,,Overcast,80,2012-12-20 08:54:00
4:14 AM,37.8,34.0,86,29.87,4.0,East,11.5,-,N/A,,Overcast,80,2012-12-20 09:14:00
4:34 AM,37.8,34.0,86,29.86,4.0,ESE,11.5,-,N/A,,Overcast,110,2012-12-20 09:34:00
4:54 AM,37.8,34.2,87,29.85,4.0,East,12.7,-,N/A,Rain,Light Rain,100,2012-12-20 09:54:00
5:14 AM,37.8,34.2,87,29.83,3.0,East,9.2,18.4,N/A,,Overcast,100,2012-12-20 10:14:00
5:34 AM,38.3,34.5,86,29.81,4.0,East,12.7,-,N/A,Rain,Light Rain,90,2012-12-20 10:34:00
5:54 AM,38.7,34.7,86,29.78,4.0,East,16.1,23.0,N/A,,Unknown,90,2012-12-20 10:54:00
6:14 AM,39.0,34.5,84,29.76,5.0,East,20.7,26.5,N/A,,Unknown,90,2012-12-20 11:14:00
6:34 AM,39.2,34.7,84,29.72,4.0,East,20.7,28.8,N/A,Rain,Light Rain,90,2012-12-20 11:34:00
6:54 AM,39.6,35.1,84,29.68,4.0,East,21.9,31.1,0.01,Rain,Light Rain,90,2012-12-20 11:54:00
7:14 AM,40.1,35.2,83,29.67,5.0,East,17.3,31.1,N/A,Rain,Light Rain,90,2012-12-20 12:14:00
7:34 AM,40.1,35.6,84,29.67,4.0,ESE,19.6,27.6,N/A,Rain,Light Rain,110,2012-12-20 12:34:00
7:54 AM,40.5,36.0,84,29.65,3.0,East,19.6,27.6,0.02,Rain,Rain,100,2012-12-20 12:54:00
8:14 AM,40.6,36.3,85,29.62,4.0,East,16.1,25.3,0.02,Rain,Rain,90,2012-12-20 13:14:00
8:34 AM,40.6,36.5,85,29.62,4.0,East,20.7,25.3,0.05,Rain,Rain,100,2012-12-20 13:34:00
8:54 AM,40.6,36.5,85,29.58,2.5,East,20.7,27.6,0.07,Rain,Light Rain,100,2012-12-20 13:54:00
9:14 AM,40.8,36.7,85,29.56,3.0,East,16.1,26.5,0.01,Rain,Light Rain,90,2012-12-20 14:14:00
9:34 AM,41.0,36.7,85,29.54,2.5,East,19.6,29.9,0.03,Rain,Light Rain,90,2012-12-20 14:34:00
9:54 AM,41.0,36.9,85,29.52,2.5,East,19.6,28.8,0.04,Rain,Light Rain,90,2012-12-20 14:54:00
10:14 AM,41.2,36.9,85,29.52,2.5,East,18.4,25.3,0.02,Rain,Light Rain,100,2012-12-20 15:14:00
10:34 AM,41.0,36.9,85,29.51,2.5,East,16.1,24.2,0.06,Rain,Rain,100,2012-12-20 15:34:00
10:54 AM,41.2,37.0,85,29.50,2.0,East,20.7,25.3,0.10,Rain,Rain,100,2012-12-20 15:54:00
11:14 AM,41.4,37.4,86,29.46,2.0,ESE,20.7,31.1,0.03,Rain,Rain,110,2012-12-20 16:14:00
11:34 AM,41.5,37.4,85,29.43,3.0,ESE,20.7,26.5,0.05,Rain,Light Rain,110,2012-12-20 16:34:00
11:54 AM,41.9,37.4,84,29.38,2.5,East,25.3,31.1,0.07,Rain,Light Rain,100,2012-12-20 16:54:00
12:14 PM,41.9,37.6,85,29.34,5.0,ESE,23.0,32.2,0.01,Rain,Light Rain,120,2012-12-20 17:14:00
12:34 PM,42.8,37.6,82,29.36,7.0,SE,16.1,29.9,0.01,,Unknown,130,2012-12-20 17:34:00
12:54 PM,43.0,37.8,82,29.32,10.0,ESE,19.6,28.8,0.01,,Drizzle,120,2012-12-20 17:54:00
1:14 PM,43.0,37.9,82,29.26,4.0,ESE,20.7,31.1,N/A,Rain,Rain,110,2012-12-20 18:14:00
1:34 PM,43.7,38.8,83,29.24,7.0,ESE,21.9,27.6,N/A,,Overcast,110,2012-12-20 18:34:00
1:54 PM,43.9,39.0,83,29.26,10.0,SE,20.7,24.2,N/A,,Overcast,140,2012-12-20 18:54:00
2:14 PM,44.4,39.4,82,29.23,10.0,SE,17.3,26.5,N/A,,Overcast,130,2012-12-20 19:14:00
2:34 PM,44.8,39.7,82,29.21,10.0,SE,16.1,26.5,N/A,,Overcast,130,2012-12-20 19:34:00
2:54 PM,45.0,40.3,84,29.20,5.0,SE,13.8,25.3,0.01,Rain,Rain,130,2012-12-20 19:54:00
3:14 PM,45.1,40.8,85,29.19,5.0,SE,15.0,-,0.01,Rain,Light Rain,130,2012-12-20 20:14:00
3:34 PM,45.5,41.4,85,29.17,3.0,SE,15.0,23.0,0.01,Rain,Light Rain,130,2012-12-20 20:34:00
3:54 PM,45.9,41.9,86,29.15,5.0,SE,15.0,25.3,0.01,,Drizzle,130,2012-12-20 20:54:00
4:14 PM,46.4,42.1,85,29.14,5.0,SE,16.1,20.7,N/A,Rain,Light Rain,130,2012-12-20 21:14:00
4:34 PM,46.8,42.8,86,29.13,4.0,SE,18.4,23.0,N/A,Rain,Light Rain,130,2012-12-20 21:34:00
4:54 PM,47.1,42.8,85,29.11,5.0,SE,15.0,20.7,N/A,Rain,Rain,130,2012-12-20 21:54:00
5:14 PM,47.3,43.0,85,29.10,7.0,ESE,15.0,21.9,N/A,Rain,Light Rain,120,2012-12-20 22:14:00
5:34 PM,47.7,43.5,86,29.09,10.0,ESE,13.8,18.4,N/A,Rain,Light Rain,120,2012-12-20 22:34:00
5:54 PM,47.8,43.7,86,29.08,7.0,SE,11.5,17.3,0.01,Rain,Light Rain,130,2012-12-20 22:54:00
6:14 PM,48.0,43.9,86,29.10,5.0,SW,10.4,-,0.05,Rain,Heavy Rain,220,2012-12-20 23:14:00
6:34 PM,48.2,43.3,83,29.09,10.0,SSW,8.1,-,0.05,Rain,Rain,210,2012-12-20 23:34:00
6:54 PM,48.4,43.7,84,29.10,5.0,SW,11.5,16.1,0.08,Rain,Rain,230,2012-12-20 23:54:00
7:14 PM,47.8,43.7,86,29.10,7.0,West,6.9,-,0.03,Rain,Rain,270,2012-12-21 00:14:00
7:34 PM,47.5,43.5,86,29.10,7.0,WNW,6.9,-,0.05,Rain,Rain,300,2012-12-21 00:34:00
7:54 PM,46.8,43.0,87,29.11,7.0,SW,3.5,-,0.07,Rain,Rain,220,2012-12-21 00:54:00
8:14 PM,47.1,42.6,84,29.12,7.0,SW,11.5,-,0.02,Rain,Rain,230,2012-12-21 01:14:00
8:34 PM,46.4,39.6,77,29.13,10.0,SSW,8.1,-,0.05,Rain,Light Rain,210,2012-12-21 01:34:00
8:54 PM,46.0,37.9,73,29.12,10.0,SW,12.7,-,0.05,Rain,Light Rain,230,2012-12-21 01:54:00
9:14 PM,45.3,36.0,70,29.12,10.0,SSW,15.0,18.4,N/A,Rain,Rain,200,2012-12-21 02:14:00
9:34 PM,44.2,35.4,71,29.13,10.0,SSW,15.0,-,N/A,,Overcast,200,2012-12-21 02:34:00
9:54 PM,43.3,35.4,74,29.12,10.0,South,11.5,-,N/A,,Overcast,190,2012-12-21 02:54:00
10:14 PM,43.0,34.9,73,29.12,10.0,South,9.2,-,N/A,,Overcast,190,2012-12-21 03:14:00
10:34 PM,42.8,34.7,73,29.12,10.0,South,4.6,-,N/A,,Overcast,190,2012-12-21 03:34:00
10:54 PM,42.3,32.7,69,29.12,10.0,South,11.5,-,N/A,,Overcast,190,2012-12-21 03:54:00
11:14 PM,41.4,32.0,69,29.12,10.0,South,6.9,-,N/A,,Overcast,190,2012-12-21 04:14:00
11:34 PM,41.0,32.0,70,29.13,10.0,SSW,5.8,-,N/A,,Overcast,200,2012-12-21 04:34:00
11:54 PM,41.0,32.2,71,29.14,10.0,South,4.6,-,N/A,,Overcast,180,2012-12-21 04:54:00